Regional Weather Roundup
Issued by NWS

Home | Current Version | Previous Version | Text Only | Print | Product List | Glossary On
Versions: 1 2 3 4 5 6 7 8 9 10 11 12 13 14 15 16 17 18 19 20 21 22 23 24 25 26 27 28 29 30 31 32 33 34 35 36 37 38 39 40 41 42 43 44 45 46 47 48 49 50
000
ASUS44 KJAN 272310
RWRMS

MISSISSIPPI HOURLY WEATHER ROUNDUP
NATIONAL WEATHER SERVICE JACKSON MS
600 PM CDT WED AUG 27 2014

NOTE: "FAIR: INDICATES FEW OR NO CLOUDS BELOW 12,000 FEET WITH NO
SIGNIFICANT WEATHER AND/OR OBSTRUCTIONS TO VISIBILITY.

MSZ001>002-007>008-010>013-018>021-025>028-034>036-280000-
NORTHWEST MISSISSIPPI

CITY           SKY/WX    TMP DP  RH WIND       PRES   REMARKS
CLARKSDALE     FAIR      90  68  48 CALM      30.01F HX  93
CLEVELAND      FAIR      90  69  49 NE5       29.99S HX  94
GREENWOOD      MOSUNNY   89  68  49 CALM      30.00F HX  93
GREENVILLE     SUNNY     91  66  43 NE6       29.98F HX  93
GRENADA        FAIR      90  63  40 CALM      30.00F HX  90
OLIVE BRANCH   MOSUNNY   88  68  51 NE5       30.02F HX  91
OXFORD         FAIR      88  59  37 SE3       30.03F
TUNICA         CLEAR     90  63  40 CALM      30.01F HX  90
$$

MSZ003>006-009-014>017-022>024-029>033-037>039-280000-
NORTHEAST MISSISSIPPI

CITY           SKY/WX    TMP DP  RH WIND       PRES   REMARKS
BELMONT        FAIR      87  65  46 CALM      30.03F
COLUMBUS AFB   MOSUNNY   91  61  37 NE6       30.00F HX  90
CORINTH        FAIR      88  64  45 VRB3      30.02F
GOLDN TRIANGLE MOSUNNY   90  63  40 N7        30.01F HX  90
STARKVILLE     FAIR      86  61  42 CALM      30.01S
TUPELO         SUNNY     89  61  38 E7        30.01F
$$

MSZ040-058-280000-
CENTRAL MISSISSIPPI

CITY           SKY/WX    TMP DP  RH WIND       PRES   REMARKS
JACKSON INTL   MOSUNNY   92  60  34 N5        29.99F HX  91
JACKSON HAWKNS SUNNY     92  59  33 NE6       29.99F HX  91
MERIDIAN KEY   SUNNY     92  56  29 N7        29.99F HX  90
MERIDIAN NAS   MOSUNNY   92  57  30 N6        29.99F HX  90
RAYMOND        FAIR      91  84  79 NE5       29.99F HX 118
VICKSBURG      SUNNY     92  65  40 NE7       29.98F HX  94
$$

MSZ059>079-280000-
SOUTH MISSISSIPPI

CITY           SKY/WX    TMP DP  RH WIND       PRES   REMARKS
BROOKHAVEN     FAIR      88  68  51 CALM      30.01S HX  91
COLUMBIA       FAIR      90  72  55 MISG      29.96S HX  96
HATTIESBURG    MOSUNNY   92  64  39 E6        29.98F HX  93
MCCOMB         MOSUNNY   90  67  46 E5        29.98S HX  93
NATCHEZ        SUNNY     90  72  55 N8        29.99S HX  96
PINE BELT      MOSUNNY   91  61  35 NE8       30.01S HX  91
$$

MSZ080>082-280000-
COASTAL MISSISSIPPI

CITY           SKY/WX    TMP DP  RH WIND       PRES   REMARKS
BAY ST LOUIS   MOSUNNY  N/A N/A N/A S8        29.98S
BILOXI         PTSUNNY   87  72  62 S8        29.98S HX  93
PASCAGOULA     PTSUNNY   85  72  65 SE10      29.98S HX  91
GULFPORT       PTSUNNY   87  73  62 SE12      29.97S HX  94
$$



USA.gov is the U.S. government's official web portal to all federal, state and local government web resources and services.